[[{"header":{"parameterUnit":"m.s-1","parameterCategory":1,"la1":30.2991,"la2":30.254,"lo1":-89.0895,"lo2":-89.0444,"dy":0.0017,"dx":0.0017,"nx":28,"ny":28,"refTime":"2024-10-19T03:00:00:Z","depth":0,"parameterNumber":2,"parameterNumberName":"U-component_of_WINDS"},"data":[0,0,0,0,0,0,0,0,0,0,0,0,0,0,0,0,0,0,0,0,0,0,0,0,0,0,0,0,0,0,0,0,0,0,0,0,0,0,0,0,0,0,0,0,0,0,0,0,0,0,0,0,0,0,0,0,0,0,-2.9103,-2.9103,0,-2.9119,-2.9119,-2.9119,-2.8992,-2.8989,-2.8985,-2.8982,-2.8998,-2.9002,-2.9006,0,0,0,0,0,0,0,0,0,0,0,0,0,-2.8962,-2.8965,-2.9102,-2.9103,-2.9103,-2.9119,-2.9119,-2.9119,-2.8993,-2.8988,-2.8984,-2.898,-2.8997,-2.9002,-2.9006,0,0,0,0,0,0,0,0,0,0,0,0,0,-2.9005,-2.8966,-2.9102,-2.9042,-2.9036,-2.9118,-2.9119,-2.9119,-2.8994,-2.8988,-2.8983,-2.8978,-2.8996,-2.9001,-2.9007,-2.9148,0,0,-2.9024,-2.9026,0,0,0,0,0,0,0,0,-2.9003,-2.901,-2.905,-2.9046,-2.904,-2.9048,-2.9075,-2.9129,-2.8995,-2.901,-2.8982,-2.8975,-2.9019,-2.9023,-2.9037,-2.9149,-2.9149,-2.9024,-2.9028,-2.903,-2.9032,0,0,0,0,0,0,0,-2.9,-2.9009,-2.9109,-2.9051,-2.9045,-2.9014,-2.9014,-2.9085,-2.9044,-2.9008,-2.8999,-2.9003,-2.9015,-2.9032,-2.9037,-2.915,-2.9024,-2.9029,-2.9033,-2.9035,-2.9377,-2.9383,0,0,0,0,0,0,-2.9005,-2.9007,-2.9108,-2.9109,-2.9008,-2.902,-2.9021,-2.9051,-2.9043,-2.9037,-2.9007,-2.8997,-2.9025,-2.903,-2.9037,-2.9202,-2.903,-2.9035,-2.9039,-2.9372,-2.9378,-2.9385,0,0,0,0,0,0,-2.9003,-2.9015,-2.9108,-2.9056,-2.9065,-2.9028,-2.9063,-2.9054,-2.907,-2.9042,-2.9034,-2.9032,-2.9021,-2.9029,-2.9121,-2.92,-2.9038,-2.9043,-2.9365,-2.9374,-2.9382,-2.9533,0,0,0,0,0,0,-2.8999,-2.9015,-2.9069,-2.9058,-2.9068,-2.9192,-2.9068,-2.9058,-2.9081,-2.9067,-2.9063,-2.9058,-2.9018,-2.9113,-2.9127,-2.9205,-2.9048,-2.9358,-2.9369,-2.9379,-2.9521,-2.9546,-2.9567,0,0,0,0,0,-2.8995,-2.9111,-2.9072,-2.9085,-2.9135,-2.9197,-2.9203,-2.9155,-2.9087,-2.9141,-2.9122,-2.9058,-2.9189,-2.9124,-2.9138,-2.9219,-2.9352,-2.9366,-2.9378,-2.951,-2.9541,-2.9566,0,0,0,0,0,0,-2.9132,-2.9108,-2.9065,-2.9181,-2.9192,-2.9176,-2.9242,-2.9188,-2.9219,-2.9205,-2.9143,-2.9143,-2.9246,-2.9241,-2.9169,-2.9355,-2.9259,-2.9275,-2.9355,-2.9384,-2.9406,-2.9406,-2.9052,0,0,0,0,0,-2.9176,-2.9229,-2.9205,-2.931,-2.9317,-2.9279,-2.9304,-2.9266,-2.9275,-2.9279,-2.9267,-2.9278,-2.9322,-2.9352,-2.9391,-2.9519,-2.9516,-2.9582,-2.9605,-2.9624,-2.9639,-2.9707,-2.9735,-2.9427,-2.9427,-2.9427,0,0,-2.9267,-2.926,-2.9298,-2.9337,-2.9341,-2.9397,-2.9284,-2.9348,-2.9389,-2.9288,-2.9375,-2.9367,-2.9375,-2.9486,-2.9534,-2.9486,-2.9724,-2.964,-2.9656,-2.9661,-2.9723,-2.9752,-2.9778,-2.9436,-2.9434,-2.9433,0,0,-2.9462,-2.9462,-2.955,-2.9556,-2.9563,-2.9537,-2.9558,-2.9549,-2.954,-2.9626,-2.9552,-2.9599,-2.9676,-2.9685,-2.9699,-2.9897,-2.9839,-2.9911,-3.0033,-3.0099,-3.0124,-3.0145,-3.0216,-3.0242,-2.9926,-2.9927,-2.9927,0,-2.9575,-2.9656,-2.9601,-2.9671,-2.9691,-2.9602,-2.969,-2.9698,-2.9718,-2.9734,-2.9678,-2.9772,-2.9772,-2.9884,-2.9932,-2.9946,-2.9969,-2.9912,-3.0125,-3.0145,-3.0164,-3.0232,-3.0259,-2.9936,-2.9935,-2.9934,-2.9933,0,-2.9795,-2.9853,-2.9922,-2.9944,-2.9971,-3.0049,-3.0006,-3.004,-2.9999,-2.9979,-3.0067,-3.0063,-3.0099,-3.0122,-3.0083,-3.0229,-3.0198,-3.0135,-3.0037,-3.0204,-3.0266,-3.0291,-2.9948,-2.9945,-2.9942,-2.994,0,0,-3.0078,-3.0067,-3.0094,-3.0103,-3.0104,-3.0147,-3.0222,-3.0257,-3.0288,-3.0304,-3.0365,-3.0431,-3.0372,-3.0389,-3.035,-3.0408,-3.0566,-3.0337,-3.0336,-3.0381,-3.0727,-3.0776,-3.0806,-3.0526,-3.0531,-3.0535,-3.0726,0,-3.0269,-3.0395,-3.0348,-3.0478,-3.0531,-3.0447,-3.0511,-3.0519,-3.0501,-3.0543,-3.0523,-3.0572,-3.049,-3.05,-3.0554,-3.0535,-3.0635,-3.0521,-3.0583,-3.0586,-3.0585,-3.0838,-3.089,-3.1071,-3.075,-3.0754,-3.0757,0,-3.0509,-3.0535,-3.0671,-3.0662,-3.0683,-3.0742,-3.077,-3.0811,-3.0818,-3.0801,-3.082,-3.0768,-3.0839,-3.0741,-3.084,-3.0763,-3.0786,-3.0781,-3.0786,-3.0791,-3.0683,-3.0851,-3.1128,-3.1156,-3.0795,-3.0792,-3.0789,0,-3.0703,-3.0772,-3.0862,-3.0872,-3.0864,-3.0908,-3.0907,-3.0908,-3.0932,-3.0957,-3.0972,-3.1005,-3.1023,-3.105,-3.1008,-3.094,-3.1113,-3.1011,-3.1101,-3.1102,-3.1142,-3.1141,-3.1427,-3.1155,-3.1155,-3.1154,-3.1154,0,-3.0922,-3.1009,-3.0949,-3.1005,-3.1099,-3.1043,-3.1138,-3.1127,-3.1129,-3.1181,-3.1109,-3.116,-3.11,-3.1145,-3.1112,-3.1199,-3.1208,-3.1196,-3.1187,-3.1204,-3.1205,-3.1218,-3.1205,-3.1162,-3.116,-3.1159,-3.1157,0,-3.1156,-3.1119,-3.1212,-3.1197,-3.1195,-3.1266,-3.1252,-3.1303,-3.128,-3.1346,-3.1359,-3.1323,-3.1372,-3.1332,-3.1379,-3.1357,-3.1473,-3.1445,-3.1471,-3.1463,-3.1556,-3.1549,-3.1862,-3.1901,-3.1604,-3.1607,-3.1609,0,-3.1299,-3.1363,-3.1355,-3.1385,-3.1388,-3.1437,-3.1461,-3.1408,-3.1436,-3.1448,-3.1498,-3.154,-3.1571,-3.1653,-3.1631,-3.1667,-3.164,-3.1747,-3.1645,-3.166,-3.1643,-3.164,-3.1646,-3.1769,-3.1772,-3.1775,-3.1777,0,-3.1556,-3.1535,-3.1573,-3.1605,-3.1635,-3.1658,-3.1675,-3.1703,-3.1648,-3.1684,-3.1732,-3.1757,-3.1805,-3.1848,-3.1877,-3.1875,-3.1818,-3.181,-3.1833,-3.1851,-3.1864,-3.1859,-3.1529,-3.1803,-3.18,-3.1799,-3.1797,-3.1796,-3.1749,-3.1803,-3.1805,-3.185,-3.1857,-3.1874,-3.1921,-3.1903,-3.1943,-3.1978,-3.1944,-3.2003,-3.2008,-3.204,-3.2045,-3.2091,-3.2046,-3.2079,-3.2088,-3.2097,-3.2111,-3.1856,-3.2095,-3.2094,-3.2094,-3.2093,-3.2093,0,-3.2004,-3.2001,-3.2043,-3.2068,-3.2103,-3.2045,-3.2061,-3.2094,-3.2147,-3.2156,-3.2188,-3.2244,-3.2285,-3.2267,-3.2303,-3.2343,-3.2318,-3.2354,-3.2351,-3.2352,-3.2148,-3.2125,-3.2374,-3.2374,-3.2374,-3.2374,-3.2374,-3.2374,-3.2141,-3.2228,-3.2207,-3.2297,-3.2293,-3.2351,-3.2365,-3.238,-3.2387,-3.2453,-3.2487,-3.2474,-3.2472,-3.2507,-3.2542,-3.2535,-3.2553,-3.2599,-3.2583,-3.2394,-3.2366,-3.234,-3.2318,-3.2603,-3.2603,-3.2783,-3.2785,-3.2786]},{"header":{"parameterUnit":"m.s-1","parameterCategory":1,"la1":30.2991,"la2":30.254,"lo1":-89.0895,"lo2":-89.0444,"dy":0.0017,"dx":0.0017,"nx":28,"ny":28,"refTime":"2024-10-19T03:00:00:Z","depth":0,"parameterNumber":3,"parameterNumberName":"V-component_of_WINDS"},"data":[0,0,0,0,0,0,0,0,0,0,0,0,0,0,0,0,0,0,0,0,0,0,0,0,0,0,0,0,0,0,0,0,0,0,0,0,0,0,0,0,0,0,0,0,0,0,0,0,0,0,0,0,0,0,0,0,0,0,-4.1433,-4.1433,0,-4.1493,-4.1494,-4.1494,-4.1428,-4.1426,-4.1423,-4.1421,-4.1478,-4.1482,-4.1485,0,0,0,0,0,0,0,0,0,0,0,0,0,-4.1255,-4.1259,-4.1432,-4.1433,-4.1434,-4.1493,-4.1494,-4.1494,-4.1429,-4.1425,-4.1422,-4.142,-4.1477,-4.1481,-4.1486,0,0,0,0,0,0,0,0,0,0,0,0,0,-4.1325,-4.126,-4.1432,-4.1408,-4.1407,-4.1493,-4.1494,-4.1495,-4.1429,-4.1425,-4.1422,-4.1418,-4.1475,-4.1481,-4.1486,-4.1597,0,0,-4.1504,-4.1507,0,0,0,0,0,0,0,0,-4.1321,-4.1332,-4.1411,-4.141,-4.1409,-4.1449,-4.1452,-4.1529,-4.143,-4.1421,-4.1421,-4.1416,-4.1471,-4.1477,-4.1496,-4.16,-4.1602,-4.1505,-4.1508,-4.1511,-4.1512,0,0,0,0,0,0,0,-4.1317,-4.1329,-4.1456,-4.1412,-4.1411,-4.1393,-4.1399,-4.1466,-4.1466,-4.1421,-4.1416,-4.1425,-4.147,-4.1491,-4.1497,-4.1603,-4.1504,-4.1509,-4.1513,-4.1515,-4.1799,-4.1803,0,0,0,0,0,0,-4.1315,-4.1325,-4.1454,-4.1458,-4.1355,-4.1399,-4.1406,-4.144,-4.1465,-4.1465,-4.1428,-4.1421,-4.1483,-4.149,-4.1499,-4.163,-4.151,-4.1516,-4.1519,-4.1795,-4.18,-4.1805,0,0,0,0,0,0,-4.1312,-4.1327,-4.1452,-4.139,-4.1405,-4.1406,-4.1445,-4.1443,-4.1464,-4.147,-4.1469,-4.145,-4.148,-4.1491,-4.1573,-4.1631,-4.1518,-4.1524,-4.1791,-4.1797,-4.1802,-4.1892,0,0,0,0,0,0,-4.1307,-4.1326,-4.137,-4.1392,-4.1409,-4.1527,-4.1449,-4.1447,-4.1475,-4.1467,-4.1491,-4.1491,-4.1478,-4.1565,-4.1579,-4.1637,-4.1528,-4.1785,-4.1793,-4.1801,-4.1884,-4.1901,-4.1915,0,0,0,0,0,-4.1301,-4.1392,-4.1372,-4.1388,-4.1463,-4.1531,-4.154,-4.1524,-4.148,-4.1523,-4.1526,-4.149,-4.1622,-4.1574,-4.1589,-4.1649,-4.1782,-4.1791,-4.18,-4.1877,-4.1898,-4.1915,0,0,0,0,0,0,-4.1375,-4.1394,-4.1373,-4.1475,-4.1502,-4.1519,-4.1573,-4.1546,-4.1585,-4.1576,-4.1553,-4.1559,-4.1647,-4.1656,-4.1602,-4.1757,-4.1694,-4.1707,-4.1748,-4.1767,-4.1782,-4.1778,-4.1533,0,0,0,0,0,-4.1404,-4.1458,-4.1472,-4.156,-4.1575,-4.1572,-4.16,-4.1586,-4.1613,-4.1623,-4.1633,-4.1659,-4.1706,-4.1737,-4.1781,-4.1885,-4.1889,-4.1934,-4.195,-4.1962,-4.1973,-4.2028,-4.2048,-4.1835,-4.1835,-4.1835,0,0,-4.1462,-4.148,-4.1515,-4.1575,-4.1594,-4.165,-4.1582,-4.1643,-4.1684,-4.1632,-4.1711,-4.1719,-4.1746,-4.184,-4.1882,-4.185,-4.2033,-4.1974,-4.1984,-4.1988,-4.2039,-4.2059,-4.2077,-4.1841,-4.184,-4.1839,0,0,-4.1598,-4.1617,-4.1692,-4.1713,-4.1744,-4.1741,-4.176,-4.1782,-4.1785,-4.1864,-4.1827,-4.1873,-4.1955,-4.1976,-4.1997,-4.214,-4.2108,-4.2155,-4.2235,-4.2289,-4.2305,-4.232,-4.237,-4.2388,-4.2166,-4.2166,-4.2166,0,-4.1666,-4.175,-4.1734,-4.1799,-4.1825,-4.1783,-4.1858,-4.1878,-4.1921,-4.194,-4.1904,-4.2006,-4.2021,-4.2119,-4.2154,-4.2173,-4.2191,-4.2152,-4.2305,-4.2319,-4.2333,-4.238,-4.2399,-4.2172,-4.2171,-4.217,-4.217,0,-4.1833,-4.1891,-4.1948,-4.1992,-4.2025,-4.2095,-4.2087,-4.2123,-4.2105,-4.2106,-4.2186,-4.2203,-4.2249,-4.2271,-4.2255,-4.2367,-4.2346,-4.2308,-4.2244,-4.2359,-4.2403,-4.2421,-4.2179,-4.2177,-4.2176,-4.2175,0,0,-4.2016,-4.2051,-4.2072,-4.2091,-4.2121,-4.2165,-4.2232,-4.2279,-4.2309,-4.234,-4.2394,-4.2465,-4.243,-4.2454,-4.2439,-4.2486,-4.2597,-4.2442,-4.2442,-4.247,-4.272,-4.2748,-4.2769,-4.2577,-4.258,-4.2583,-4.2718,0,-4.2151,-4.2269,-4.2256,-4.2368,-4.2421,-4.2381,-4.2439,-4.2463,-4.2466,-4.251,-4.2511,-4.2561,-4.2512,-4.2526,-4.2571,-4.2574,-4.2647,-4.2564,-4.2625,-4.2628,-4.2619,-4.2793,-4.2822,-4.2949,-4.2735,-4.2738,-4.274,0,-4.2325,-4.2364,-4.2481,-4.2503,-4.2525,-4.2578,-4.2619,-4.2662,-4.2688,-4.2686,-4.2714,-4.269,-4.2755,-4.2691,-4.278,-4.2724,-4.2748,-4.2753,-4.2758,-4.2762,-4.269,-4.2801,-4.2989,-4.3008,-4.2767,-4.2765,-4.2763,0,-4.2446,-4.2527,-4.2608,-4.2625,-4.2653,-4.2691,-4.2704,-4.2727,-4.2755,-4.2791,-4.2809,-4.2851,-4.2874,-4.2906,-4.2894,-4.2849,-4.2985,-4.292,-4.2984,-4.2984,-4.3013,-4.3012,-4.3207,-4.3031,-4.303,-4.303,-4.303,0,-4.2598,-4.2671,-4.2662,-4.2712,-4.2792,-4.2776,-4.2855,-4.2863,-4.2883,-4.2932,-4.29,-4.2946,-4.2928,-4.2973,-4.2963,-4.3038,-4.3048,-4.3047,-4.3044,-4.305,-4.305,-4.3065,-4.3055,-4.3035,-4.3034,-4.3033,-4.3032,0,-4.2746,-4.2743,-4.2828,-4.2848,-4.2855,-4.2913,-4.2929,-4.2975,-4.2975,-4.3037,-4.3051,-4.305,-4.3101,-4.3093,-4.3149,-4.3142,-4.3235,-4.3221,-4.3227,-4.3223,-4.3287,-4.3281,-4.3498,-4.3525,-4.3332,-4.3334,-4.3336,0,-4.2842,-4.2898,-4.2924,-4.2956,-4.2972,-4.3023,-4.3052,-4.3038,-4.3069,-4.3103,-4.3144,-4.3193,-4.3231,-4.3313,-4.3317,-4.3359,-4.3345,-4.3419,-4.3351,-4.3355,-4.3345,-4.3342,-4.3347,-4.3432,-4.3434,-4.3436,-4.3437,0,-4.3014,-4.301,-4.3055,-4.3099,-4.3136,-4.3169,-4.3199,-4.3226,-4.3215,-4.3251,-4.3304,-4.3334,-4.3391,-4.3439,-4.3479,-4.349,-4.3461,-4.3459,-4.3475,-4.3481,-4.3482,-4.3482,-4.3262,-4.3453,-4.3452,-4.345,-4.345,-4.3449,-4.3138,-4.3186,-4.3212,-4.3262,-4.3284,-4.3313,-4.3357,-4.3363,-4.3407,-4.3454,-4.3442,-4.3502,-4.3525,-4.3575,-4.3591,-4.3636,-4.3609,-4.3633,-4.3639,-4.3645,-4.3653,-4.3476,-4.3643,-4.3643,-4.3642,-4.3642,-4.3642,0,-4.3307,-4.3322,-4.3369,-4.3413,-4.3453,-4.3424,-4.3456,-4.349,-4.3544,-4.3569,-4.3607,-4.3667,-4.3713,-4.372,-4.3764,-4.3798,-4.3786,-4.381,-4.3807,-4.3809,-4.3675,-4.3656,-4.3819,-4.3819,-4.3819,-4.3819,-4.3819,-4.3819,-4.34,-4.3478,-4.3477,-4.3565,-4.3579,-4.3638,-4.3659,-4.3685,-4.3705,-4.3774,-4.3813,-4.3818,-4.3835,-4.388,-4.392,-4.3921,-4.3938,-4.3967,-4.3963,-4.3837,-4.3819,-4.3802,-4.3784,-4.3971,-4.3971,-4.4093,-4.4094,-4.4095]}]]